K9DC Weather Reports


Display with metric or nautical units.
time (UTC)temp
F
wind
direction
speed
MPH
gust
MPH
rain 1hr
in
rain 24hr
in
rain mn
in
humidity
%
barometer
mb
20260505061504 60 29 1.0 6.0 0.16 0.33 0.25 78 1005.7
20260505061003 60 326 1.0 7.0 0.22 0.31 0.23 78 1006.1
20260505060503 60 325 3.0 11.0 0.21 0.29 0.21 78 1006.6
20260505060003 61 323 3.0 11.0 0.19 0.27 0.19 77 1006.9
20260505055504 61 324 3.0 11.0 0.16 0.24 0.16 76 1006.6
20260505055003 62 318 6.0 19.0 0.14 0.22 0.14 75 1006.4
20260505054504 62 314 9.0 20.0 0.13 0.21 0.13 75 1006.2
20260505054003 64 298 9.0 20.0 0.12 0.20 0.12 73 1006.1
20260505053504 64 274 5.0 18.0 0.11 0.19 0.11 72 1005.7
20260505053004 65 258 4.0 12.0 0.10 0.18 0.10 69 1005.2
20260505052503 66 244 6.0 16.0 0.10 0.18 0.10 68 1005.0
20260505052003 66 250 9.0 18.0 0.10 0.18 0.10 65 1004.7
20260505051504 67 247 12.0 30.0 0.07 0.15 0.07 64 1005.7
20260505051004 68 236 12.0 30.0 0.01 0.09 0.01 59 1005.0
20260505050504 68 238 12.0 27.0 0.00 0.08 0.00 56 1004.1
20260505041505 68 237 4.0 15.0 0.00 0.08 0.00 47 1002.9
20260505041004 68 232 3.0 15.0 0.00 0.08 0.00 47 1002.8
20260505040503 68 227 4.0 17.0 0.00 0.08 0.00 47 1002.6
20260505040004 68 225 4.0 17.0 0.00 0.08 0.00 47 1002.5
20260505035504 68 221 3.0 16.0 0.00 0.08 0.08 47 1002.5
20260505035004 68 220 3.0 16.0 0.00 0.08 0.08 47 1002.6
20260505034503 69 217 3.0 15.0 0.00 0.08 0.08 47 1002.6
20260505034003 69 220 3.0 15.0 0.00 0.08 0.08 47 1002.6
20260505033504 69 221 3.0 11.0 0.00 0.08 0.08 47 1002.7
20260505033004 69 208 3.0 15.0 0.00 0.08 0.08 47 1002.7
20260505032503 69 213 3.0 15.0 0.00 0.08 0.08 47 1002.8
20260505032003 69 218 3.0 15.0 0.00 0.08 0.08 47 1002.9
20260505031503 69 219 3.0 16.0 0.00 0.08 0.08 47 1002.9
20260505031003 69 219 2.0 16.0 0.00 0.08 0.08 47 1003.0
20260505030503 69 224 2.0 12.0 0.00 0.08 0.08 47 1003.0
20260505030005 69 216 2.0 15.0 0.00 0.08 0.08 48 1003.1
20260505025503 70 211 2.0 15.0 0.00 0.08 0.08 47 1003.1
20260505025004 70 225 2.0 12.0 0.00 0.08 0.08 47 1003.1
20260505024503 70 225 2.0 13.0 0.00 0.08 0.08 46 1003.1
20260505024003 70 213 2.0 13.0 0.00 0.08 0.08 47 1003.1
20260505023505 70 214 2.0 11.0 0.00 0.08 0.08 48 1003.2
20260505023004 70 220 3.0 14.0 0.00 0.08 0.08 48 1003.2
20260505022503 70 219 3.0 14.0 0.00 0.08 0.08 47 1003.2
20260505022003 70 230 3.0 10.0 0.00 0.08 0.08 47 1003.3
20260505021504 70 230 2.0 10.0 0.00 0.08 0.08 47 1003.2
20260505021004 70 222 3.0 11.0 0.00 0.08 0.08 47 1003.2
20260505020503 70 222 2.0 14.0 0.00 0.08 0.08 47 1003.2
20260505020003 70 229 2.0 14.0 0.00 0.08 0.08 47 1003.1
20260505015504 70 235 2.0 13.0 0.00 0.08 0.08 47 1003.0
20260505015004 70 228 2.0 11.0 0.00 0.08 0.08 47 1002.9
20260505014504 70 224 2.0 11.0 0.00 0.08 0.08 47 1002.9
20260505014004 70 227 2.0 11.0 0.00 0.08 0.08 47 1002.9
20260505013503 70 225 1.0 14.0 0.00 0.08 0.08 48 1002.7
20260505013005 70 216 2.0 14.0 0.00 0.08 0.08 46 1002.6
20260505012504 70 211 3.0 12.0 0.00 0.08 0.08 47 1002.5
20260505012004 71 219 4.0 13.0 0.00 0.08 0.08 47 1002.4
20260505011505 71 228 3.0 15.0 0.00 0.08 0.08 46 1002.3
20260505011003 71 235 2.0 15.0 0.00 0.08 0.08 46 1002.2
20260505010503 71 227 3.0 15.0 0.00 0.08 0.08 46 1002.1
20260505010004 71 219 3.0 15.0 0.00 0.08 0.08 46 1002.0
20260505005504 71 214 2.0 12.0 0.00 0.08 0.08 46 1001.9
20260505005004 71 221 3.0 12.0 0.00 0.08 0.08 46 1001.9
20260505004503 72 224 3.0 17.0 0.00 0.08 0.08 46 1001.9
20260505004003 72 216 2.0 17.0 0.00 0.08 0.08 46 1001.9
20260505003504 72 208 2.0 11.0 0.00 0.08 0.08 45 1001.8
20260505003004 72 208 2.0 12.0 0.00 0.08 0.08 45 1001.8
20260505002503 72 210 3.0 18.0 0.00 0.08 0.08 45 1001.7
20260505002004 73 217 4.0 21.0 0.00 0.08 0.08 44 1001.8
20260505001504 73 216 4.0 21.0 0.00 0.08 0.08 44 1001.8
20260505001003 73 209 2.0 13.0 0.00 0.08 0.08 44 1001.8
20260505000503 73 221 2.0 13.0 0.00 0.08 0.08 44 1001.8
20260505000004 73 212 5.0 20.0 0.00 0.08 0.08 43 1001.9
20260504235503 74 210 6.0 20.0 0.00 0.08 0.08 43 1001.9
20260504235004 74 217 4.0 18.0 0.00 0.08 0.08 42 1002.1
20260504234504 74 215 3.0 18.0 0.00 0.08 0.08 41 1002.2
20260504234003 74 226 3.0 13.0 0.00 0.08 0.08 41 1002.4
20260504233503 74 237 3.0 11.0 0.00 0.08 0.08 42 1002.4
20260504233004 74 239 4.0 16.0 0.00 0.08 0.08 42 1002.5
20260504232503 75 238 9.0 25.0 0.00 0.08 0.08 40 1002.6
20260504232004 75 231 9.0 25.0 0.00 0.08 0.08 39 1002.6
20260504231503 75 225 9.0 27.0 0.00 0.08 0.08 39 1002.6
20260504231004 75 227 8.0 27.0 0.00 0.08 0.08 38 1002.6
20260504230505 75 227 8.0 24.0 0.00 0.08 0.08 38 1002.8
20260504230004 75 230 7.0 24.0 0.00 0.08 0.08 38 1002.7
20260504225503 76 232 5.0 22.0 0.00 0.08 0.08 38 1002.8
20260504225003 76 234 8.0 24.0 0.00 0.08 0.08 38 1002.9
20260504224503 76 231 8.0 24.0 0.00 0.08 0.08 38 1003.0
20260504224004 76 229 6.0 22.0 0.00 0.08 0.08 39 1003.1
20260504223504 75 236 5.0 18.0 0.00 0.08 0.08 42 1003.1
20260504223003 75 239 4.0 16.0 0.00 0.08 0.08 43 1003.0
20260504222505 75 240 5.0 17.0 0.00 0.08 0.08 45 1003.1
20260504222005 75 223 6.0 18.0 0.00 0.08 0.08 45 1003.0
20260504221504 75 210 6.0 18.0 0.00 0.08 0.08 46 1003.1
20260504221003 74 206 5.0 19.0 0.00 0.08 0.08 51 1003.1
20260504220503 74 202 5.0 19.0 0.00 0.08 0.08 51 1003.2
20260504220005 74 198 4.0 17.0 0.00 0.08 0.08 53 1003.3
20260504215504 74 204 3.0 13.0 0.00 0.08 0.08 54 1003.3
20260504215004 74 200 2.0 13.0 0.00 0.08 0.08 54 1003.4
20260504214503 74 197 2.0 11.0 0.00 0.08 0.08 55 1003.4
20260504214003 74 204 2.0 16.0 0.00 0.08 0.08 55 1003.3
20260504213504 73 206 2.0 16.0 0.00 0.08 0.08 54 1003.4
20260504213004 73 184 2.0 13.0 0.00 0.08 0.08 56 1003.5
20260504212503 73 197 2.0 13.0 0.00 0.08 0.08 56 1003.6
20260504212003 72 208 2.0 12.0 0.00 0.08 0.08 58 1003.6
20260504211504 72 203 2.0 13.0 0.00 0.08 0.08 59 1003.6
20260504211003 71 199 1.0 13.0 0.00 0.08 0.08 63 1003.7
20260504210505 70 199 1.0 7.0 0.00 0.08 0.08 68 1003.9
20260504210004 69 197 1.0 8.0 0.00 0.08 0.08 69 1004.1
20260504205503 68 196 0.0 8.0 0.00 0.08 0.08 71 1004.2
20260504205004 68 168 1.0 9.0 0.00 0.08 0.08 72 1004.3
20260504204504 68 185 3.0 9.0 0.00 0.08 0.08 73 1004.3
20260504204004 67 201 4.0 9.0 0.00 0.08 0.08 73 1004.3
20260504203505 67 211 4.0 10.0 0.01 0.08 0.08 73 1004.4
20260504203003 67 211 5.0 11.0 0.01 0.08 0.08 72 1004.5
20260504202503 66 207 5.0 11.0 0.01 0.08 0.08 72 1004.6
20260504202004 66 204 5.0 12.0 0.01 0.08 0.08 73 1004.8
20260504201504 66 199 5.0 12.0 0.01 0.08 0.08 73 1004.7
20260504201003 66 184 5.0 12.0 0.01 0.08 0.08 72 1004.2
20260504200504 66 200 5.0 15.0 0.01 0.08 0.08 72 1004.2
20260504200005 66 220 5.0 15.0 0.01 0.08 0.08 71 1004.8
20260504195504 66 220 7.0 16.0 0.01 0.08 0.08 71 1005.2
20260504195005 66 215 9.0 19.0 0.01 0.08 0.08 67 1005.2
20260504194504 67 219 9.0 19.0 0.01 0.08 0.08 65 1005.0
20260504194003 67 230 8.0 18.0 0.01 0.08 0.08 62 1005.5
20260504193503 67 236 7.0 17.0 0.00 0.07 0.07 58 1005.5
20260504193004 67 244 6.0 17.0 0.00 0.07 0.07 57 1005.2
20260504192503 67 249 4.0 13.0 0.00 0.07 0.07 57 1004.8
20260504192003 68 242 4.0 10.0 0.00 0.07 0.07 59 1004.6
20260504191504 68 237 3.0 10.0 0.00 0.07 0.07 58 1004.8
20260504191003 68 243 4.0 9.0 0.00 0.07 0.07 57 1004.9
20260504190505 68 241 6.0 15.0 0.00 0.07 0.07 56 1005.0
20260504190004 68 237 8.0 18.0 0.00 0.07 0.07 53 1005.0
20260504185504 68 230 7.0 18.0 0.00 0.07 0.07 53 1005.0
20260504185005 68 236 7.0 14.0 0.00 0.07 0.07 54 1005.0
20260504184504 68 248 9.0 22.0 0.00 0.07 0.07 53 1005.4
20260504184005 68 244 9.0 22.0 0.00 0.07 0.07 52 1005.3
20260504183503 69 235 7.0 15.0 0.00 0.07 0.07 53 1005.6
20260504183003 69 238 7.0 16.0 0.00 0.07 0.07 54 1005.6
20260504182504 69 242 7.0 18.0 0.00 0.07 0.07 54 1005.7
20260504182003 69 245 9.0 18.0 0.00 0.07 0.07 54 1005.9
20260504181503 70 245 11.0 25.0 0.00 0.07 0.07 53 1005.9
20260504181005 70 250 12.0 25.0 0.00 0.07 0.07 52 1005.7
20260504180503 70 256 10.0 24.0 0.00 0.07 0.07 52 1006.0
20260504180005 71 251 9.0 19.0 0.00 0.07 0.07 51 1005.7
20260504175504 71 246 8.0 17.0 0.00 0.07 0.07 51 1005.7
20260504175004 71 241 7.0 16.0 0.00 0.07 0.07 51 1005.4
20260504174503 71 238 7.0 17.0 0.00 0.07 0.07 51 1005.3
20260504174004 71 234 8.0 17.0 0.00 0.07 0.07 53 1005.4
20260504173503 71 235 8.0 22.0 0.00 0.07 0.07 51 1005.4
20260504173003 71 238 7.0 22.0 0.00 0.07 0.07 50 1005.3
20260504172505 72 236 8.0 19.0 0.00 0.07 0.07 49 1005.4
20260504172004 72 226 7.0 18.0 0.00 0.07 0.07 49 1005.4
20260504171504 72 204 6.0 18.0 0.00 0.07 0.07 51 1005.2
20260504171003 72 208 5.0 15.0 0.00 0.07 0.07 51 1005.0
20260504170503 72 231 5.0 12.0 0.00 0.07 0.07 54 1004.9
20260504151005 70 241 6.0 13.0 0.00 0.07 0.07 56 1006.5
20260504150505 69 242 5.0 11.0 0.00 0.07 0.07 59 1006.4
20260504141004 62 249 6.0 13.0 0.07 0.07 0.07 66 1006.9
20260504140504 62 252 5.0 13.0 0.07 0.07 0.07 67 1007.0
20260504130503 56 253 3.0 9.0 0.00 0.00 0.00 77 1006.9
20260504110503 48 200 1.0 4.0 0.00 0.00 0.00 79 1006.7
20260504100504 47 200 1.0 4.0 0.00 0.00 0.00 79 1007.1
20260504082003 47 200 1.0 4.0 0.00 0.00 0.00 75 1007.8
20260504081504 48 200 1.0 4.0 0.00 0.00 0.00 74 1007.9
20260504081004 48 200 1.0 4.0 0.00 0.00 0.00 74 1007.8
20260504080504 48 200 1.0 4.0 0.00 0.00 0.00 74 1007.8